Regional Weather Roundup
Issued by NWS

Home | Current Version | Previous Version | Graphics & Text | Print | Product List | Glossary On
Versions: 1 2 3 4 5 6 7 8 9 10 11 12 13 14 15 16 17 18 19 20 21 22 23 24 25 26 27 28 29 30 31 32 33 34 35 36 37 38 39 40 41 42 43 44 45 46 47 48 49 50
051
ASUS43 KLMK 060902
RWRKY
KENTUCKY REGIONAL WEATHER ROUNDUP
NATIONAL WEATHER SERVICE LOUISVILLE KY
400 AM EST SAT FEB 06 2016

NOTE "FAIR" INDICATES FEW OR NO CLOUDS BELOW 12,000 FEET
WITH NO SIGNIFICANT WEATHER AND/OR OBSTRUCTIONS TO VISIBILITY.

KYZ001>023-026-027-061>063-070>075-061000-
WESTERN AND SOUTH CENTRAL KENTUCKY

CITY           SKY/WX    TMP DP  RH WIND       PRES   REMARKS
PADUCAH        CLEAR     28  22  78 CALM      30.34S
HENDERSON      PTCLDY    28  21  74 CALM      30.34F
OWENSBORO      PTCLDY    29  25  85 CALM      30.35F
HOPKINSVILLE   CLEAR     31  23  72 SE1       30.35F
BOWLING GREEN  CLOUDY    27  22  81 CALM      30.37S
GLASGOW        NOT AVBL
$$

KYZ024-025-028>034-038-045-046-053-061000-
NORTH CENTRAL KENTUCKY

CITY           SKY/WX    TMP DP  RH WIND       PRES   REMARKS
LOUISVILLE/SDF CLOUDY    32  22  66 CALM      30.35S
LOUISVILLE/LOU CLOUDY    29  22  75 CALM      30.35F
FORT KNOX      PTCLDY    24  19  83 CALM      30.32F
$$

KYZ035>037-039>044-047>052-055>060-089>105-061000-
NORTHEAST KENTUCKY

CITY           SKY/WX    TMP DP  RH WIND       PRES   REMARKS
LEXINGTON      PTCLDY    29  18  63 W3        30.33S
COVINGTON      NOT AVBL
FRANKFORT      CLOUDY    25  17  72 S6        30.33S WCI  18
$$

KYZ054-064>069-076>088-106>120-061000-
SOUTHEAST KENTUCKY

CITY           SKY/WX    TMP DP  RH WIND       PRES   REMARKS
JACKSON        PTCLDY    29  15  56 SW3       30.34S
LONDON         CLOUDY    25  19  78 CALM      30.35F
SOMERSET       NOT AVBL
MIDDLESBORO    NOT AVBL
MONTICELLO     MOSUNNY   24  19  81 W7        30.38S WCI  16
$$





USA.gov is the U.S. government's official web portal to all federal, state and local government web resources and services.